RH
1 1 1 1 1 1 1 1 1 1 2 1 2 3 7 5 6 19 25 27 18 6 5 5 11 20 35 46 44 39 32 27 27 24 22 23 25 30 27 22 21 35 57 57 63 73 69 72 73 70 69 64 57 48 41 35 32 33 30 23 18 16 16 16 15 14 13 13 12 11 11 9 8 7 7 7 7 8 7 7 6 7 8 9 15 21 32 43 47 48 50 50 40 30 25 20 17
1 1 2 1 1 1 1 1 1 1 1 1 3 6 8 6 4 12 23 27 17 7 5 5 10 18 27 35 36 38 38 34 30 29 28 26 27 26 21 21 20 33 46 49 73 87 79 80 75 70 71 66 58 50 42 35 34 35 29 22 20 19 18 17 15 14 13 12 11 11 11 10 8 8 7 8 8 8 9 8 7 7 9 9 14 23 33 45 51 51 51 52 45 34 27 22 18
1 2 1 1 2 1 2 1 1 2 1 2 4 8 9 6 6 10 19 26 21 13 8 6 10 14 18 24 23 26 34 38 37 32 30 26 22 19 16 16 22 32 38 57 89 92 86 87 77 70 73 69 59 51 42 37 36 32 26 23 23 22 20 17 15 14 13 12 12 11 10 10 9 8 8 8 8 9 10 9 8 8 9 9 13 22 32 47 55 52 50 49 49 43 33 28 23
2 2 2 2 2 1 2 1 2 2 1 4 5 8 9 6 9 13 16 21 22 18 11 7 9 11 13 19 22 21 24 28 30 26 25 23 18 17 15 16 30 36 30 53 80 77 80 85 79 76 76 67 52 45 39 35 33 29 27 27 26 24 22 19 17 15 14 12 11 11 9 9 8 8 8 8 8 9 9 9 9 8 9 10 13 20 27 43 54 57 56 50 49 48 41 35 30
2 2 2 2 2 2 2 2 2 1 1 4 7 10 9 9 12 15 15 18 22 19 12 10 8 8 9 12 16 20 20 18 19 18 19 19 14 15 18 19 26 30 31 48 63 63 76 86 84 88 80 56 40 38 34 31 30 30 31 32 31 28 24 20 18 16 15 13 12 11 10 9 9 8 8 8 8 8 9 8 8 8 9 11 15 19 23 37 51 58 62 59 55 51 46 42 38
2 2 2 2 2 2 1 2 1 1 2 5 9 10 12 15 15 18 22 22 21 18 13 12 12 9 9 10 12 16 18 16 15 16 17 17 14 19 24 22 20 23 31 45 58 62 76 86 84 91 74 41 33 32 29 30 33 35 36 37 34 30 25 20 17 16 14 13 12 11 10 10 9 8 8 8 8 8 8 7 7 8 10 12 17 21 24 35 50 60 65 66 62 57 51 46 44
2 2 2 2 2 2 2 2 2 2 2 8 13 11 18 21 17 20 30 33 27 21 15 14 17 14 11 12 14 15 18 16 14 17 19 19 16 19 25 26 24 26 36 43 51 59 71 79 79 87 64 32 29 29 29 34 37 41 41 40 35 29 25 20 17 15 14 13 13 12 12 10 9 8 8 8 8 8 7 7 7 8 11 14 18 24 31 40 55 65 70 72 68 65 58 51 47
2 2 2 2 2 2 2 2 2 3 1 9 17 12 19 25 20 22 34 44 38 28 22 20 24 23 16 13 16 15 17 18 17 19 20 23 18 17 23 27 28 36 53 54 51 57 65 72 81 84 55 29 29 30 35 38 43 47 44 38 31 26 22 19 17 16 15 14 13 13 13 12 10 8 7 7 7 7 6 5 6 7 10 14 17 25 35 46 59 67 71 74 71 69 67 60 51
2 2 2 2 2 2 2 2 2 4 2 7 19 16 18 23 22 28 39 48 43 30 24 24 30 32 23 15 17 17 18 20 21 20 20 25 21 20 27 29 30 40 57 63 65 66 65 76 84 70 42 30 33 35 41 46 52 51 44 35 26 24 21 20 20 20 20 18 16 15 15 14 12 9 7 6 6 5 5 4 4 7 9 12 16 24 36 48 58 61 61 64 66 68 71 72 62
2 2 2 2 2 2 2 3 3 4 3 4 14 16 18 25 26 32 41 46 42 33 23 19 27 31 24 16 16 18 18 24 28 22 20 30 28 27 30 34 44 56 61 63 72 79 82 84 70 49 37 37 41 46 53 56 58 50 40 31 26 26 24 24 25 26 25 24 22 19 17 16 15 12 8 5 4 4 3 3 3 5 8 11 14 23 36 46 53 53 51 53 60 65 67 73 70
3 2 2 3 2 3 2 4 4 3 4 3 8 12 17 26 29 33 39 40 40 39 27 16 22 27 23 19 17 15 13 23 35 25 19 27 30 30 31 41 64 79 75 69 79 89 85 69 49 41 42 45 50 55 58 58 54 46 39 33 31 29 27 28 28 29 28 29 29 26 23 20 19 19 14 9 5 4 3 3 3 4 7 11 15 22 32 40 46 48 47 48 53 60 61 66 70
3 3 2 3 2 3 3 4 4 3 5 5 5 11 17 25 29 32 36 37 35 36 28 15 22 28 26 24 18 15 12 18 26 21 19 21 26 37 43 57 73 81 82 81 84 79 62 48 43 46 49 53 57 59 58 54 47 40 36 32 28 25 25 28 28 28 26 28 30 30 28 25 24 24 22 15 9 5 4 4 2 3 5 10 14 19 27 33 37 38 37 37 41 49 50 54 64
3 4 3 3 3 3 4 6 6 4 7 8 7 12 19 27 30 32 34 37 36 33 25 14 19 25 23 22 18 18 17 17 18 16 19 24 34 47 57 73 76 74 80 80 72 57 46 44 47 52 58 64 65 65 61 53 44 36 30 23 19 18 21 24 24 22 23 26 30 32 33 30 25 22 22 20 16 10 6 5 3 3 5 8 11 15 19 22 24 23 23 24 27 33 36 39 52
4 4 4 4 4 4 5 7 9 6 7 9 8 12 19 26 31 35 37 40 41 40 37 25 21 24 23 23 19 19 21 21 23 23 21 26 35 39 54 76 79 77 77 72 63 52 49 51 58 66 71 74 74 70 60 50 41 33 25 17 16 19 21 23 21 21 23 24 26 29 29 29 25 20 17 17 17 13 9 8 6 4 5 6 8 10 12 13 15 17 18 22 23 24 30 33 43
5 5 5 6 6 6 6 8 11 10 8 7 10 15 20 26 33 41 44 46 46 43 43 36 24 22 26 25 18 21 27 28 32 36 33 31 32 35 48 63 71 79 75 71 69 63 64 67 72 78 79 79 76 67 55 47 41 32 21 16 19 24 24 22 24 30 31 29 29 28 28 30 30 24 20 21 19 14 11 10 10 8 6 7 7 7 8 10 15 22 26 27 26 22 27 35 43
6 6 6 7 8 7 8 8 11 11 8 9 15 23 28 34 40 44 44 46 45 38 34 32 27 25 28 24 16 22 29 40 49 45 40 40 38 39 45 44 53 73 75 72 77 76 76 79 80 81 80 77 70 62 55 48 42 31 20 15 17 23 23 18 24 35 38 38 35 30 30 29 30 31 30 32 27 16 16 19 18 14 11 9 8 6 6 10 15 23 28 25 24 22 27 38 46
7 7 7 8 9 8 9 10 10 9 8 10 21 32 36 39 41 42 43 41 36 30 24 24 27 26 27 21 16 19 22 39 52 42 40 45 40 39 41 37 42 58 68 71 78 84 82 81 82 81 76 70 65 58 52 49 42 30 25 24 22 27 29 20 19 27 31 31 27 27 37 40 36 35 29 24 23 19 23 27 26 23 19 14 8 6 4 7 11 14 18 18 22 26 30 39 48
8 8 9 10 11 10 11 11 10 9 8 8 19 38 45 42 42 41 40 36 30 29 25 22 23 19 20 20 18 19 17 26 35 36 44 48 46 49 50 52 53 51 61 72 79 85 86 85 83 78 71 65 60 51 50 56 51 40 37 39 38 39 38 30 27 34 41 34 24 25 38 53 55 49 33 20 22 27 28 27 30 32 28 21 12 6 4 5 8 10 13 17 24 31 36 41 48
10 10 10 12 12 12 12 10 9 9 9 9 14 32 40 40 42 36 33 33 28 28 26 22 20 17 18 22 22 20 19 22 29 43 59 62 60 58 52 59 74 72 71 79 85 87 87 84 77 69 63 57 53 47 51 59 52 44 43 44 42 40 37 36 36 39 52 52 42 35 29 36 51 55 41 25 29 38 39 35 37 41 35 28 19 10 6 6 10 12 15 20 25 35 43 46 49
12 11 12 14 13 14 15 12 11 10 8 10 13 20 26 34 35 30 31 34 30 29 29 23 21 20 19 21 19 16 17 19 26 42 61 67 62 52 42 48 71 85 87 87 89 90 86 78 71 66 59 53 54 56 59 56 48 44 44 43 39 38 36 38 38 35 48 56 47 42 38 37 40 40 33 30 40 46 45 45 47 45 41 39 33 25 21 20 20 20 21 24 28 38 47 50 54
13 12 14 15 13 15 18 14 12 13 10 9 13 14 20 28 28 28 30 29 30 33 31 24 21 22 19 16 15 14 14 14 14 23 35 42 45 41 35 42 57 71 81 86 87 87 82 74 69 64 57 50 51 61 64 54 47 44 44 44 41 40 40 38 38 41 51 51 35 29 45 60 57 45 33 36 53 56 48 50 54 46 41 48 48 40 38 39 36 33 33 33 34 41 49 54 60
13 14 15 15 13 15 17 14 11 12 12 10 11 12 18 25 26 29 27 23 28 32 27 20 17 17 17 15 14 17 24 28 24 26 36 43 47 44 42 52 58 56 63 78 85 83 75 70 68 64 61 57 54 59 60 51 43 43 49 52 48 47 47 38 36 44 42 30 20 20 39 61 72 67 44 40 60 72 69 64 61 56 55 63 65 56 49 50 50 46 44 40 39 42 48 55 61
15 15 16 15 15 16 17 15 13 12 11 11 12 14 19 28 33 31 22 19 24 26 20 15 16 16 16 16 16 20 32 39 38 42 51 53 55 55 55 62 66 63 64 73 79 76 71 67 63 57 58 59 59 62 57 47 44 50 55 50 49 54 51 40 35 34 23 18 25 36 52 63 77 81 64 60 65 68 80 77 67 70 75 77 80 74 63 60 62 59 55 49 47 45 46 55 65
17 16 16 17 16 16 17 15 14 12 11 11 13 17 21 29 35 29 20 19 21 22 16 14 20 21 20 23 24 27 31 33 31 33 38 40 51 65 70 73 83 87 79 73 72 70 70 68 54 42 51 61 61 63 56 45 47 65 68 50 50 54 43 34 28 24 19 26 34 42 63 70 74 81 81 85 74 66 81 81 75 84 90 88 89 85 76 74 75 70 67 64 62 61 60 69 85
17 17 17 17 17 16 17 16 14 12 12 13 15 18 21 25 26 20 18 19 20 20 16 16 21 21 23 27 27 30 31 30 26 23 26 27 42 71 85 91 101 99 86 75 72 71 69 63 48 42 59 72 68 62 54 45 44 58 60 53 60 48 27 22 19 17 19 24 25 31 56 66 64 69 75 82 80 81 90 85 84 90 92 94 96 93 87 87 85 78 74 71 71 73 72 76 89
16 17 16 16 17 17 17 16 15 12 12 13 16 18 19 22 20 16 17 19 20 19 16 17 20 21 23 23 24 28 31 29 25 22 23 23 40 73 89 97 104 96 88 81 75 72 67 59 49 51 66 70 66 61 51 44 40 39 33 38 54 40 17 14 12 12 14 17 16 19 35 45 49 60 66 73 81 86 87 83 77 76 86 96 98 98 94 89 86 80 77 77 79 80 77 73 74
16 16 16 16 16 17 16 16 14 12 13 15 17 18 19 20 17 15 17 18 19 17 17 18 19 19 20 20 22 26 26 23 22 24 25 24 39 71 86 92 95 87 82 80 77 75 67 59 53 62 74 62 52 51 42 37 36 32 24 23 30 21 10 10 9 11 13 12 11 10 13 18 33 54 62 65 76 79 74 74 73 78 91 93 89 89 87 82 77 74 73 78 80 81 82 81 80
17 16 16 15 16 16 15 15 14 14 15 17 18 19 18 18 16 16 16 17 17 16 17 17 18 20 20 19 19 23 24 21 21 25 31 32 36 65 84 82 78 73 74 79 82 78 61 50 50 57 61 44 32 33 29 26 25 24 21 16 13 9 7 9 8 10 10 8 11 8 4 11 20 29 44 57 66 69 72 78 86 94 97 88 78 71 70 70 68 67 65 64 67 75 84 87 85
16 16 16 15 14 13 13 14 14 16 17 18 18 18 17 17 16 15 15 14 15 16 17 17 20 24 22 19 23 27 25 22 22 20 33 47 47 58 64 58 60 64 75 92 90 70 49 46 54 53 45 34 25 23 17 12 12 13 13 10 8 8 7 7 7 8 7 6 13 17 23 40 38 22 31 52 57 56 68 79 85 87 83 78 70 59 60 63 60 61 62 58 54 59 70 71 66
15 15 14 13 11 9 10 11 13 14 15 16 17 17 16 17 15 13 14 13 14 15 15 15 17 21 21 23 34 37 28 26 27 21 34 57 55 44 42 49 62 66 75 91 80 54 45 49 53 48 38 30 26 22 14 9 11 12 11 9 7 8 7 8 8 6 7 5 6 19 33 46 58 58 51 54 63 62 60 64 68 67 59 56 56 51 52 55 51 50 56 63 60 54 53 49 49
11 11 10 8 7 7 8 9 11 13 14 16 17 16 18 18 15 13 12 12 13 13 16 16 18 28 30 26 34 39 31 29 34 32 39 62 60 39 42 59 67 76 79 67 51 42 47 49 44 39 30 22 24 23 14 11 15 15 12 10 7 8 8 8 8 7 8 6 3 12 22 28 53 76 66 57 65 67 59 52 51 50 44 42 45 44 43 47 45 37 36 47 57 57 49 41 42
8 7 7 8 7 8 11 12 11 12 13 18 19 19 23 24 20 16 13 13 12 14 20 21 20 28 31 25 31 43 42 39 43 45 47 62 63 43 49 63 58 67 67 46 38 41 42 42 39 34 24 20 25 22 13 11 14 13 12 11 8 8 8 7 8 8 7 7 7 11 19 29 45 52 51 55 51 47 48 43 40 39 35 34 34 35 37 37 34 30 28 26 31 40 39 36 36
7 8 9 9 8 12 21 21 19 18 17 23 26 23 26 32 33 26 15 10 11 18 27 29 26 26 27 29 37 47 50 50 51 49 50 58 61 50 51 57 49 48 49 40 39 37 36 42 38 28 21 22 24 18 13 12 12 12 11 10 10 8 8 8 7 8 8 7 8 10 12 20 30 29 32 44 43 35 30 26 29 30 27 26 25 26 27 24 19 20 26 22 19 23 26 30 36
6 9 10 9 10 17 27 26 23 25 27 32 31 26 28 32 38 36 24 16 15 25 38 42 45 43 38 37 38 40 39 44 47 41 47 58 63 65 62 59 56 51 49 45 41 39 40 40 32 24 25 26 22 18 15 14 13 12 11 9 10 9 8 8 7 8 9 8 7 9 10 12 18 22 20 23 31 32 24 17 17 17 18 19 18 18 17 15 12 10 14 17 18 18 19 25 36
6 9 10 14 22 27 34 35 29 29 38 45 38 29 29 31 42 47 44 40 29 31 48 53 55 56 52 47 41 36 30 30 33 37 53 64 63 68 72 74 73 62 55 51 46 46 43 36 28 25 31 31 23 19 18 16 13 11 12 11 10 9 9 9 8 8 8 8 8 7 8 8 7 12 14 13 16 18 16 13 11 12 14 13 14 15 13 12 10 7 7 10 13 14 13 14 32
10 13 10 20 38 40 38 39 36 35 44 53 42 32 35 39 48 51 51 53 40 38 54 56 54 56 54 53 47 40 37 32 31 44 65 74 71 70 72 82 87 77 72 68 60 54 46 39 32 23 27 33 28 22 18 16 15 11 13 15 14 11 9 9 8 8 7 7 8 7 7 8 6 12 19 14 9 9 9 9 9 11 11 10 12 12 12 12 11 10 7 6 7 8 7 6 29
14 20 20 33 48 50 46 44 48 51 54 58 48 38 39 39 41 48 58 60 44 39 46 43 45 51 52 55 55 50 46 38 34 45 58 68 80 84 82 84 85 79 79 81 75 65 53 44 35 27 32 41 39 30 20 19 23 19 17 18 18 16 12 10 8 7 8 6 7 7 7 8 6 9 15 11 7 9 8 8 9 9 9 10 11 11 12 12 12 11 9 7 4 2 2 -0 15
17 28 37 48 53 55 56 57 63 66 66 68 60 48 42 40 38 46 63 69 56 43 35 32 34 40 48 55 58 57 52 38 29 36 37 39 53 65 69 68 68 75 82 83 77 68 59 49 39 36 40 44 44 37 24 23 30 27 21 20 21 23 19 12 9 7 8 7 7 8 8 10 8 7 8 8 8 9 8 9 9 9 10 10 10 11 11 11 12 12 9 7 4 2 1 0 8
20 34 49 63 63 62 62 63 73 78 76 76 71 62 55 53 49 49 64 74 71 56 36 31 34 38 49 55 55 58 60 48 31 25 23 20 26 34 45 56 69 83 82 75 72 67 61 53 44 41 39 36 38 38 28 25 31 29 23 20 18 21 21 15 11 8 8 8 8 8 8 9 10 10 8 8 9 9 9 10 9 10 10 10 10 10 10 10 10 10 10 8 5 5 2 4 13
29 38 55 72 73 74 72 71 81 86 83 81 76 71 65 59 56 58 67 71 78 76 51 32 32 40 50 56 60 62 63 57 38 22 16 16 22 26 36 57 70 67 56 56 63 62 58 55 49 43 40 40 41 39 29 22 26 28 25 21 17 17 18 16 13 10 8 9 10 10 10 10 11 12 11 10 9 9 9 9 9 10 10 10 10 9 9 10 9 9 10 8 6 7 1 1 6
41 46 56 75 82 84 83 80 90 93 90 90 84 81 73 57 54 59 57 53 67 78 56 28 26 42 55 60 66 66 59 53 38 23 14 14 19 20 31 53 58 42 33 42 51 53 53 51 47 45 45 47 46 40 30 23 24 24 23 20 18 17 18 17 15 13 11 10 11 11 11 12 11 12 12 12 11 10 10 10 10 10 10 11 10 10 10 9 10 10 9 9 7 7 4 2 4
46 59 65 80 87 88 87 85 89 93 96 98 89 85 77 57 52 57 51 43 49 57 42 20 20 39 56 62 62 60 56 53 42 30 23 22 21 19 26 37 35 31 33 42 53 60 60 53 48 49 48 47 50 50 42 34 28 22 20 21 20 18 18 19 17 16 15 13 13 12 12 13 13 13 13 13 13 12 12 13 13 12 12 13 12 12 12 11 12 11 9 10 9 7 7 6 7
40 63 76 84 87 86 87 85 82 81 87 90 77 66 60 54 53 56 56 53 50 52 41 25 23 34 50 61 60 56 57 58 53 41 28 26 26 25 27 26 25 32 38 41 47 55 61 59 54 51 51 52 55 56 52 48 41 33 29 25 19 17 18 18 18 18 18 17 14 13 13 12 13 13 13 13 14 14 14 14 14 14 13 13 13 13 13 13 12 12 11 10 9 8 8 7 7
25 50 77 87 86 85 83 79 78 73 69 70 60 41 38 47 56 64 70 70 67 61 50 38 32 32 44 57 57 55 62 68 63 47 34 33 36 34 32 30 28 31 34 37 41 48 56 62 62 59 59 53 42 35 38 50 54 50 53 46 24 14 16 16 18 18 18 19 17 15 14 13 13 13 13 13 13 12 12 12 12 12 12 12 12 12 12 12 11 11 11 10 10 9 8 8 7
17 34 72 90 83 83 84 78 77 71 58 57 52 39 35 38 49 68 75 68 66 65 58 48 32 27 37 47 50 54 69 76 62 47 45 44 39 34 33 34 32 30 34 41 48 55 63 67 68 65 58 43 28 20 24 45 60 62 76 73 38 18 18 16 18 21 19 17 16 15 15 14 13 12 11 11 11 10 10 10 10 9 10 10 10 10 10 10 10 9 9 9 8 8 7 8 7
18 23 59 88 83 77 79 74 75 74 58 47 45 44 45 40 41 58 64 54 52 57 61 48 28 33 44 44 46 57 72 73 59 54 55 44 33 30 31 34 32 27 29 35 40 48 56 63 66 68 62 47 35 26 18 27 48 64 81 73 39 28 31 22 18 24 21 14 13 14 14 13 12 10 10 8 8 8 7 7 7 7 8 8 8 8 8 7 7 6 7 6 6 6 5 5 6
19 17 34 66 77 69 67 64 64 74 71 54 46 48 50 42 33 38 45 46 42 45 56 49 33 45 56 52 55 66 75 70 62 65 57 39 32 31 29 29 27 23 24 28 33 36 38 43 50 55 55 50 44 36 22 14 25 41 49 42 35 45 51 35 21 22 23 15 11 12 11 11 10 7 7 6 5 5 5 5 5 4 4 5 5 5 5 5 5 4 4 4 4 4 4 4 4
16 16 17 34 46 41 42 40 37 55 74 72 64 64 61 47 32 27 31 44 49 48 55 55 46 49 60 69 73 72 72 69 67 69 53 34 28 24 20 20 20 21 22 24 29 33 36 38 43 47 49 50 48 48 40 24 20 26 24 32 57 70 60 40 23 20 21 15 10 12 11 9 8 4 3 3 3 3 3 3 3 3 3 3 3 3 3 3 3 4 4 4 4 3 3 4 3
14 16 15 18 26 28 32 35 34 40 54 64 68 69 68 60 45 30 23 33 49 55 57 56 51 46 53 74 84 72 63 64 69 65 44 26 19 15 13 14 15 17 18 21 24 28 33 35 40 47 47 44 45 60 63 40 26 30 32 52 85 91 72 47 25 19 20 13 10 12 12 10 7 5 4 3 3 3 2 3 3 3 3 2 3 2 3 3 3 4 4 3 4 3 3 4 4
26 27 31 36 46 48 46 44 44 45 48 54 56 53 59 66 59 42 31 29 39 58 67 61 55 47 42 58 72 65 58 65 69 61 39 21 14 12 10 10 10 9 10 12 14 19 24 27 32 37 39 40 48 62 65 56 53 52 51 70 94 99 92 69 37 22 17 11 12 12 10 11 9 9 10 9 8 6 4 3 2 3 3 2 3 2 2 3 3 3 4 4 4 4 4 4 4
47 47 53 62 66 60 51 45 45 56 67 66 56 49 53 62 64 58 53 47 48 67 78 67 57 51 43 51 62 64 69 74 65 49 34 24 20 14 9 9 7 4 5 4 7 10 10 15 20 22 28 40 58 73 75 80 87 77 70 84 97 100 103 93 61 32 17 10 10 11 10 10 9 11 15 16 16 15 13 10 7 5 5 4 4 5 5 4 4 4 4 4 4 3 4 4 4
64 57 54 62 68 67 59 50 44 49 64 71 63 56 52 51 57 63 66 67 70 80 85 77 68 63 62 67 71 73 78 76 61 49 42 38 31 17 11 13 11 9 9 7 10 9 10 22 25 26 32 34 49 73 84 91 96 89 85 83 78 77 85 95 83 51 27 15 10 12 14 13 13 14 18 21 23 23 23 21 17 14 12 11 11 11 12 12 10 10 8 7 6 5 5 4 4
75 63 57 64 69 71 71 71 64 53 56 64 55 51 57 60 66 75 78 82 86 87 87 86 82 79 82 86 84 84 82 74 67 63 57 50 39 22 16 18 16 16 15 14 15 10 14 27 31 45 59 50 49 60 68 84 93 95 95 74 55 56 60 77 91 70 40 24 15 16 21 21 21 20 22 27 30 32 32 30 29 28 24 21 19 18 18 19 18 17 16 15 13 10 8 7 6
74 71 66 72 74 70 69 77 82 71 66 68 60 65 81 85 85 91 91 90 91 89 88 88 84 81 84 86 86 87 85 78 72 63 52 44 37 28 24 22 19 19 19 18 16 12 14 20 33 63 79 75 79 79 76 93 99 97 96 73 55 60 55 57 77 81 68 50 30 21 25 28 28 27 27 31 37 41 42 38 37 38 37 34 31 28 25 23 22 21 20 19 18 17 15 12 11
72 86 80 80 85 80 67 64 71 71 69 72 77 87 95 93 91 91 93 95 90 84 80 78 76 71 68 70 75 80 82 76 66 53 43 34 30 30 29 25 20 19 21 20 16 16 22 28 39 62 77 85 93 84 73 85 98 97 88 64 54 69 70 58 62 76 81 71 49 32 28 30 33 35 35 38 43 47 49 51 48 44 40 37 37 37 35 32 30 28 25 23 21 20 20 18 16
69 84 88 90 90 83 74 69 68 66 69 76 85 95 96 93 94 92 93 97 89 77 71 67 65 63 63 68 75 79 79 71 56 46 41 34 30 32 31 26 22 20 22 22 19 18 22 26 28 35 51 65 74 79 74 71 81 87 74 57 54 68 74 62 55 64 70 65 54 43 37 36 38 43 47 49 51 50 52 58 57 48 40 37 38 39 38 38 38 36 34 31 29 26 24 22 19
67 66 74 86 88 77 67 65 62 58 67 75 78 90 95 89 88 90 90 91 87 79 71 64 62 65 68 71 75 76 75 69 55 41 35 29 25 27 30 30 28 25 24 22 21 20 18 21 22 22 28 34 43 67 71 48 43 62 71 67 59 56 59 54 51 61 66 61 58 56 54 50 47 49 52 55 57 54 53 57 59 52 44 40 39 37 36 38 41 43 41 38 37 35 32 28 24
62 59 59 66 80 78 60 54 55 50 57 62 53 62 81 87 92 96 89 82 80 76 70 68 68 66 63 60 60 65 68 65 55 45 37 25 15 15 20 25 26 25 25 21 19 20 20 21 21 18 19 22 23 32 34 19 16 37 59 62 50 40 41 48 55 61 63 60 59 64 67 64 61 62 61 60 60 57 53 53 56 58 58 56 54 50 47 46 46 48 49 45 42 40 37 32 28
Wind_Speed
28 28 28 29 29 28 30 29 30 30 29 29 25 16 14 17 19 24 25 28 32 30 30 30 28 29 26 26 27 28 28 29 30 31 32 33 35 37 38 38 35 34 33 32 33 33 32 31 31 31 31 30 30 29 29 30 31 30 28 26 25 23 22 21 21 20 20 19 19 20 20 20 20 20 20 21 21 21 20 19 18 18 18 17 16 15 13 13 12 12 12 11 11 12 12 12 13
27 28 27 28 28 28 29 28 30 29 28 27 18 14 16 17 20 27 29 30 31 30 31 31 30 31 31 30 29 29 29 32 32 32 34 35 36 38 39 39 37 36 35 34 31 30 29 27 27 28 29 30 29 30 30 31 30 29 27 26 24 22 22 21 20 20 19 19 19 19 20 20 20 20 20 20 21 21 20 19 18 18 18 17 16 15 15 14 13 13 13 12 12 12 12 12 13
27 27 27 27 27 28 28 28 29 28 28 22 13 15 19 19 23 27 29 30 31 32 32 32 32 32 34 33 33 33 31 33 34 34 36 37 38 39 40 40 39 38 35 33 29 26 25 25 27 29 30 30 29 30 30 30 30 29 27 25 23 22 21 21 20 19 19 19 19 19 19 19 19 20 20 20 20 20 20 19 19 18 18 17 16 16 15 14 14 13 13 13 13 12 12 12 12
27 27 27 26 27 27 27 27 27 27 26 15 11 19 22 23 25 28 30 30 31 33 33 34 34 35 35 36 37 37 36 36 36 37 39 40 42 41 41 40 39 39 36 35 33 30 29 29 31 31 30 29 29 30 30 30 30 28 26 23 22 22 21 20 19 19 19 19 19 19 19 19 19 20 20 21 21 20 20 19 19 19 18 17 16 16 16 15 15 14 15 14 13 13 12 11 11
27 27 27 27 27 27 26 27 26 26 22 11 15 22 24 24 27 29 29 30 31 33 36 36 37 38 37 39 40 40 39 38 37 39 39 40 42 42 41 39 39 39 37 37 38 36 35 34 33 32 30 29 30 30 30 29 28 26 24 22 21 21 21 21 20 19 20 20 20 20 20 19 19 20 20 21 21 21 20 19 19 19 18 17 16 15 15 15 15 16 16 15 14 13 12 11 12
27 27 27 27 27 27 26 26 26 25 17 12 19 23 25 26 29 29 28 29 31 33 36 37 37 39 39 40 40 40 40 37 35 36 35 35 38 41 40 38 38 37 38 39 40 39 37 36 35 33 30 30 30 30 30 27 25 23 22 21 21 22 22 21 21 21 21 21 21 21 20 20 20 20 20 21 21 20 20 19 19 18 18 17 16 14 14 14 15 16 16 16 15 14 12 12 13
27 27 27 27 27 27 26 26 25 22 13 13 21 24 27 29 30 29 27 28 31 34 35 37 38 39 41 41 42 42 41 37 33 32 33 34 37 40 40 38 37 36 37 39 40 39 38 38 37 34 31 30 29 28 26 24 22 21 21 21 21 22 22 22 22 22 23 23 23 22 21 21 20 20 20 20 20 20 19 19 19 19 18 17 16 15 14 14 15 16 16 17 16 15 14 14 14
27 26 27 27 27 26 26 25 22 19 12 15 25 26 29 30 31 31 27 26 29 34 35 37 39 39 41 42 43 42 41 38 34 31 31 34 37 41 41 39 36 34 35 36 37 38 38 39 38 35 32 29 26 24 22 21 20 20 20 21 22 22 23 23 23 24 24 25 24 23 22 21 21 20 19 19 19 19 19 19 19 19 18 17 16 15 14 14 15 16 16 17 17 17 17 16 16
27 26 27 26 26 26 25 23 18 16 12 18 29 28 30 31 32 31 27 25 29 34 36 37 39 40 41 42 42 42 41 40 37 33 31 31 35 39 40 36 33 33 33 33 34 36 38 38 36 34 29 25 22 20 19 19 19 20 21 22 23 23 23 24 24 24 25 25 25 25 24 22 22 21 20 19 18 19 19 19 19 18 18 17 16 16 16 16 16 16 17 17 16 17 18 18 17
26 26 26 26 26 25 24 21 16 16 15 20 31 32 31 32 32 31 27 26 30 34 36 38 40 41 42 42 43 43 43 40 35 31 31 30 30 33 34 31 30 31 31 32 33 34 36 33 31 28 25 21 19 18 18 19 20 21 22 22 22 23 23 24 24 24 24 25 26 25 25 24 23 22 20 19 19 19 19 19 19 18 18 17 16 16 16 17 17 18 18 17 17 17 18 18 18
26 25 25 25 25 25 23 20 18 19 19 22 30 34 33 33 32 28 26 29 32 34 36 38 40 41 41 42 43 44 44 41 34 30 30 29 29 29 29 29 27 26 27 29 30 31 31 29 26 24 21 19 17 18 18 19 21 22 22 21 21 22 23 23 24 24 24 25 25 25 25 25 24 23 21 20 20 20 19 19 19 19 18 18 17 17 17 18 19 20 20 20 19 19 19 18 17
25 25 25 25 25 24 22 18 18 20 19 22 27 33 34 34 32 27 26 30 33 36 37 40 41 40 41 42 43 44 44 43 40 35 30 29 30 29 28 27 26 23 23 25 26 26 26 25 22 20 18 17 18 18 20 22 23 23 22 22 23 25 25 25 24 24 24 25 25 25 26 26 26 24 23 22 22 21 20 19 19 19 19 18 18 17 17 19 20 20 20 21 20 21 21 20 18
25 25 25 24 24 23 20 13 14 17 18 22 25 32 35 31 29 28 28 30 33 35 37 41 41 39 39 40 41 43 43 43 41 36 30 29 30 28 27 25 24 22 21 21 21 21 21 20 19 17 17 18 19 20 22 24 25 25 25 27 28 29 28 26 26 26 26 26 26 26 26 27 26 26 24 24 23 22 21 20 19 19 19 19 18 18 18 19 19 19 19 19 19 19 20 20 19
25 24 24 23 22 21 18 11 12 17 19 23 25 30 35 32 28 28 29 30 33 34 36 41 40 37 37 36 36 38 39 38 36 32 29 29 29 28 27 24 21 19 18 18 18 18 18 17 16 16 18 19 20 22 24 26 27 27 28 30 31 29 26 25 25 26 26 26 26 27 28 28 28 27 26 26 24 23 22 21 20 18 18 19 19 19 19 19 18 18 18 18 17 17 19 19 19
24 24 23 21 20 19 17 12 14 18 20 23 25 27 31 31 29 28 28 28 30 33 36 39 38 35 36 36 35 34 34 33 30 26 26 27 28 27 26 25 21 17 15 16 16 17 17 17 17 18 20 21 22 23 25 26 27 28 31 31 27 24 21 21 22 24 25 26 26 27 28 29 29 28 27 26 24 23 22 21 19 19 19 20 20 20 20 20 19 18 18 18 17 17 18 19 19
23 23 21 19 18 17 16 13 16 20 23 23 23 25 27 28 28 29 30 30 31 34 36 36 35 35 37 36 35 34 32 30 26 23 24 25 25 25 25 25 22 18 16 16 16 16 17 18 18 19 20 21 22 23 24 27 28 31 32 29 24 21 20 21 22 22 22 23 24 25 28 29 29 28 26 24 24 24 22 20 19 20 20 21 21 21 22 21 20 19 18 19 18 18 18 19 19
23 22 19 16 15 15 14 14 19 23 26 26 22 21 24 26 28 29 30 32 33 35 37 37 38 39 40 38 34 33 33 30 26 24 24 24 24 23 23 25 24 22 19 17 16 15 18 19 19 21 22 23 23 24 26 29 30 31 30 26 24 23 23 25 25 22 20 21 22 23 25 27 27 26 25 24 25 24 22 21 20 21 22 23 22 22 22 22 21 20 19 19 19 19 19 19 19
22 20 18 15 13 14 15 19 22 25 28 30 27 22 21 23 26 29 30 32 34 34 35 34 34 33 34 35 32 31 30 29 28 26 24 23 22 21 21 22 22 23 21 19 19 19 20 21 21 23 24 24 24 25 25 26 26 27 27 26 25 24 26 28 26 24 22 22 24 25 25 25 25 24 25 25 25 24 22 22 21 22 23 24 24 23 23 22 21 20 20 19 19 18 18 19 20
21 20 17 13 13 15 17 22 25 27 30 32 31 27 24 23 25 28 29 31 31 30 28 26 26 26 26 27 28 27 26 25 25 23 22 21 19 18 19 19 19 20 20 19 20 21 21 22 23 24 25 25 25 25 23 22 22 23 24 24 24 23 25 26 25 25 23 21 23 26 27 28 28 26 26 26 25 22 20 21 22 21 23 24 24 24 24 23 22 21 20 20 19 18 18 19 19
20 20 15 13 17 16 18 23 26 28 29 30 31 28 26 26 25 25 27 28 27 28 27 22 22 23 23 23 23 23 23 23 23 21 21 21 20 20 20 19 18 19 20 22 23 22 22 22 23 22 23 24 24 23 23 22 22 22 22 23 24 23 25 26 25 26 26 23 23 26 27 29 30 29 28 26 23 21 21 22 22 21 22 25 25 24 24 24 23 22 22 21 20 19 18 18 19
21 19 16 17 19 18 20 24 26 27 28 28 25 22 23 25 21 18 23 24 24 28 29 23 20 20 21 22 21 20 21 22 24 24 23 23 24 24 23 21 19 19 20 23 26 24 22 21 21 21 22 23 23 23 22 22 22 23 24 25 25 25 26 26 25 26 27 28 27 27 26 25 28 30 29 25 22 22 23 22 20 19 21 24 25 25 24 23 23 23 23 22 21 19 18 18 19
21 18 17 18 19 18 21 24 26 27 27 24 21 18 19 19 17 15 20 22 23 27 26 21 20 21 21 21 19 18 18 20 20 21 19 19 21 20 19 20 19 19 20 22 25 23 21 19 19 20 21 21 22 21 22 22 23 24 24 25 25 27 27 26 26 25 26 29 28 26 25 24 24 26 27 25 22 21 21 21 19 18 20 22 23 24 24 22 23 23 23 22 22 20 19 19 19
22 19 18 18 19 20 21 23 25 26 24 20 18 18 17 16 16 18 21 21 22 24 20 17 19 21 21 19 17 16 16 17 18 17 16 15 16 16 17 18 19 21 22 22 23 21 20 17 17 20 21 20 17 15 18 20 21 22 22 24 25 26 25 25 26 25 26 27 25 23 24 24 21 21 23 23 22 22 21 19 17 16 18 19 20 21 21 21 21 21 21 22 21 20 19 19 19
23 20 19 19 20 21 22 23 24 24 21 15 12 13 14 15 19 23 23 22 23 21 16 15 18 18 17 16 14 15 17 18 19 18 17 16 16 15 17 19 20 21 21 20 20 20 20 18 19 21 19 16 13 12 16 18 19 20 19 21 24 24 23 24 24 24 24 23 22 21 22 22 19 19 20 20 21 22 20 16 15 14 15 16 17 19 19 20 20 20 20 21 21 20 20 20 21
24 22 22 22 22 22 23 23 23 23 19 13 10 11 12 17 22 24 23 21 23 20 14 13 16 16 16 14 13 14 17 19 19 18 17 17 16 15 17 20 22 21 19 19 20 21 21 19 19 20 16 13 12 12 14 17 19 20 19 20 22 21 21 22 22 22 23 23 21 20 20 19 19 19 19 20 20 20 19 17 15 14 14 16 17 18 19 20 21 21 21 21 22 22 22 22 23
24 24 24 23 23 23 24 23 24 22 16 11 11 13 15 21 24 22 21 21 21 19 14 12 14 16 16 15 14 15 17 20 20 19 17 16 16 16 18 21 23 22 20 21 22 21 19 19 20 20 19 16 14 13 13 14 17 21 23 23 21 21 22 22 22 22 22 23 22 19 18 18 18 17 18 20 20 19 18 17 16 17 17 17 17 17 17 18 20 21 21 22 22 22 22 23 24
25 24 24 22 22 24 24 24 25 21 15 13 13 15 19 21 21 20 20 21 20 18 14 13 13 15 16 15 15 16 17 19 19 18 16 16 16 16 18 21 23 22 20 20 20 20 18 20 20 19 17 15 13 13 15 15 17 20 23 24 23 23 22 21 21 20 20 22 22 19 18 19 18 16 16 17 17 16 15 14 15 14 10 7 9 12 14 16 18 20 20 20 20 21 21 22 23
25 24 24 23 22 24 25 26 25 21 18 17 16 19 21 18 17 18 21 21 19 17 15 14 15 16 17 17 18 17 16 17 16 14 13 15 17 18 19 21 23 22 19 19 19 19 17 17 17 16 15 15 14 14 16 17 17 17 20 22 22 22 21 20 19 18 18 19 20 20 20 20 18 17 16 14 13 13 12 10 10 9 6 4 6 7 10 12 15 19 20 21 21 20 19 19 19
26 26 26 24 22 22 25 27 25 22 21 20 19 20 19 15 16 19 21 20 17 16 15 15 16 18 18 18 18 17 16 16 15 14 12 15 18 19 20 22 24 23 20 20 21 19 17 15 15 16 16 15 14 14 15 16 16 16 18 19 20 20 20 19 17 16 16 16 17 18 19 18 16 16 15 15 15 14 13 11 9 10 11 11 8 6 6 7 9 13 17 20 22 21 19 18 17
26 26 25 24 22 21 24 25 24 23 23 22 21 19 16 16 19 21 21 18 16 16 15 15 18 20 19 17 16 16 17 17 15 14 13 15 17 18 19 21 22 21 20 21 20 18 17 15 16 16 16 15 15 14 14 15 15 16 16 17 18 18 18 18 17 16 16 17 17 17 18 18 17 14 12 12 13 13 13 13 11 11 12 11 9 7 5 6 7 9 10 14 17 19 19 19 19
24 24 23 21 20 21 23 23 22 22 22 22 20 17 15 17 20 22 20 17 18 18 15 15 17 19 18 17 15 15 16 16 13 11 10 13 15 14 16 20 19 16 17 19 19 18 16 16 16 16 16 15 16 15 15 15 16 16 16 17 17 17 17 17 17 17 17 18 17 18 19 18 17 14 11 9 8 8 9 10 10 11 11 10 9 8 7 7 7 7 7 8 11 14 16 17 19
23 22 19 16 17 18 16 16 18 20 20 19 16 14 13 15 19 22 20 18 20 19 15 15 18 19 19 21 19 14 12 12 11 9 8 10 13 11 13 19 20 16 15 14 17 17 15 16 16 16 16 16 16 16 15 15 15 15 16 17 17 18 18 18 17 17 17 18 17 17 18 16 15 16 16 14 8 7 7 8 10 10 10 9 8 8 7 7 7 7 6 5 7 10 12 14 16
21 19 17 16 17 16 12 13 15 17 18 15 12 13 14 15 19 22 20 20 22 19 15 17 21 21 21 22 20 14 11 12 13 13 11 10 11 11 14 20 20 18 16 15 15 15 15 16 17 16 16 15 15 15 15 16 16 16 16 17 18 18 18 18 18 17 17 17 17 17 17 15 15 16 17 16 11 7 8 9 10 10 9 9 8 8 8 7 7 7 5 3 4 6 9 12 13
21 19 18 18 18 16 14 14 15 15 15 12 9 11 14 16 20 19 18 19 20 19 17 19 22 24 24 23 22 21 18 17 17 15 14 12 10 12 17 21 22 20 17 16 15 15 16 16 16 15 15 14 14 15 15 16 17 17 17 17 18 18 18 18 19 18 17 17 17 16 15 14 15 15 14 13 11 8 8 10 11 10 10 9 8 8 8 9 8 8 6 4 4 5 7 9 11
20 19 19 18 17 15 13 12 16 15 11 8 5 8 13 17 19 14 11 14 17 18 18 20 23 25 26 26 26 26 25 23 21 15 13 13 13 14 17 19 21 18 14 14 14 14 16 16 15 13 13 14 13 14 15 17 18 18 18 18 18 18 18 18 18 18 18 18 16 15 15 13 13 13 12 10 9 8 8 9 11 11 11 10 9 9 10 10 10 8 7 6 5 6 7 8 10
18 19 20 20 16 14 15 15 17 15 11 7 2 7 15 17 18 13 8 11 15 17 19 20 23 24 25 25 26 27 27 25 21 14 11 12 12 13 14 13 14 13 11 12 14 15 16 16 14 14 13 13 12 13 15 17 19 18 18 18 18 17 17 17 17 18 19 19 17 16 15 14 15 14 12 10 8 8 9 10 11 11 12 11 11 11 11 12 11 10 9 7 7 7 7 9 10
18 20 21 20 16 13 14 14 11 10 9 5 1 8 15 15 16 14 10 12 14 17 20 22 23 23 22 23 24 25 25 24 21 16 12 11 10 10 9 9 11 12 11 12 15 18 18 16 15 15 13 12 11 13 15 16 18 18 17 18 17 16 16 16 17 17 18 19 18 16 14 13 14 14 13 12 11 10 10 11 12 12 12 13 13 13 13 13 13 12 10 9 9 10 10 10 10
18 21 21 18 15 12 13 10 5 5 5 4 4 9 12 14 16 15 13 15 16 18 21 22 23 23 22 22 22 23 26 25 22 18 15 14 13 11 11 14 15 14 12 12 15 18 17 15 13 13 13 12 12 12 13 15 17 17 17 17 17 17 16 16 16 16 17 18 18 16 14 12 11 12 13 13 12 11 12 12 13 13 14 14 15 14 14 14 14 14 13 11 11 12 12 11 11
17 21 21 16 14 13 14 10 6 8 7 5 9 10 10 13 16 17 16 17 17 17 19 21 23 25 24 22 21 23 27 27 26 24 20 17 14 12 12 14 15 13 12 12 14 15 15 14 13 12 13 13 13 12 12 14 17 17 15 15 17 17 17 16 16 16 16 17 17 17 15 12 11 11 12 12 12 12 13 13 14 14 15 16 16 15 15 15 15 15 14 13 12 13 14 13 13
17 21 22 17 15 14 15 12 10 13 13 10 13 14 14 13 15 19 20 19 17 17 21 20 22 26 26 24 24 26 30 32 31 26 21 17 12 9 9 11 13 14 13 12 12 13 13 14 14 13 12 12 12 10 10 12 15 15 13 13 15 15 16 15 15 15 16 16 16 16 15 13 12 11 11 12 12 13 13 14 14 15 15 16 16 17 17 16 16 15 15 15 14 15 15 16 15
19 21 23 20 17 16 18 19 15 16 18 17 17 19 19 15 15 21 24 21 20 22 24 20 21 26 26 27 27 30 32 30 27 24 19 16 13 10 10 11 12 13 13 12 11 13 13 14 14 13 12 12 12 10 9 11 13 14 13 12 13 13 14 14 14 15 15 16 15 15 15 14 12 11 11 11 11 12 13 13 14 15 15 16 16 17 17 16 16 16 16 17 16 17 17 18 17
22 23 24 24 22 20 23 24 21 22 24 23 23 24 25 20 17 22 26 25 24 27 25 19 20 25 27 30 32 32 30 25 24 24 19 16 15 14 11 11 12 11 11 11 11 12 13 13 13 14 15 14 13 12 10 10 12 14 13 12 13 13 13 13 13 14 14 15 16 15 15 14 13 12 11 11 11 11 12 12 13 14 15 16 16 16 17 16 16 16 17 18 17 18 19 19 19
23 25 27 28 27 24 25 27 26 27 27 26 27 26 25 22 19 21 25 26 27 28 25 20 21 25 28 32 33 31 27 25 26 24 21 20 18 15 13 11 11 11 11 12 12 12 12 13 13 15 17 16 15 16 15 13 12 13 13 14 17 16 14 13 13 13 12 13 15 15 15 14 13 13 12 12 11 11 12 12 13 14 15 15 16 16 16 16 16 16 17 17 18 18 19 19 19
22 26 31 31 30 29 28 29 28 27 27 27 27 24 21 20 20 22 26 27 29 30 27 25 24 25 28 32 32 29 26 27 29 26 24 21 16 14 13 11 10 10 11 12 12 12 12 14 15 15 15 15 16 17 18 17 13 12 13 17 20 19 17 15 14 13 12 12 14 16 15 14 13 13 12 12 12 12 12 13 13 14 15 15 15 15 15 15 15 16 16 17 18 18 19 19 20
20 25 32 34 33 33 32 31 30 29 29 28 27 24 21 19 18 22 28 29 30 32 31 29 28 27 28 29 28 27 26 29 30 27 21 16 13 14 14 12 11 10 10 10 11 11 12 14 15 16 15 16 17 18 18 19 19 18 18 20 20 20 19 17 16 15 13 14 15 17 16 14 13 13 12 12 12 12 12 12 13 14 14 14 14 14 14 14 15 15 15 16 17 18 19 20 20
21 25 33 37 36 35 34 32 31 32 32 30 27 26 24 22 19 21 26 28 29 32 33 32 30 28 27 27 26 26 27 30 29 22 16 13 14 15 14 14 14 12 11 11 11 12 13 14 16 17 18 18 20 20 20 20 21 23 24 22 19 19 20 18 17 16 14 14 16 17 16 14 13 12 12 11 11 11 12 12 13 13 13 13 13 13 13 13 14 14 15 16 17 17 18 19 20
23 26 31 37 38 36 35 33 32 33 33 31 28 27 28 26 23 21 23 26 27 30 32 32 30 28 26 25 25 25 28 30 27 20 16 16 17 17 16 16 16 16 14 13 13 14 15 16 17 19 21 22 23 25 25 23 22 23 23 21 17 18 20 19 18 17 14 13 15 16 16 14 12 12 11 11 10 11 11 11 11 11 11 12 12 12 12 12 12 13 14 14 15 16 17 18 19
24 27 29 33 35 35 35 34 34 34 33 32 31 31 31 29 24 20 21 24 27 29 30 30 29 27 26 25 25 27 28 28 25 20 18 20 19 18 18 18 18 18 16 15 15 16 17 18 20 22 23 24 26 26 26 26 24 22 22 21 18 17 19 19 18 17 14 12 13 15 16 14 12 11 10 9 9 9 10 10 10 10 10 10 10 10 10 10 10 11 12 12 13 14 15 16 17
23 25 27 29 30 29 28 29 31 33 32 32 32 33 33 30 26 21 20 23 26 28 30 30 29 28 27 27 27 28 27 25 23 21 20 21 20 20 20 21 21 19 18 17 16 16 18 20 21 23 24 26 26 26 27 29 27 23 22 21 17 15 17 19 17 16 14 11 12 13 15 14 12 10 9 8 8 9 9 9 9 9 9 9 9 8 8 8 9 9 10 11 12 13 14 15 15
21 21 22 23 22 21 20 21 25 28 29 30 31 32 31 30 28 24 22 24 26 27 29 29 30 30 29 29 30 28 25 23 22 22 22 21 21 21 22 22 21 20 20 20 19 19 20 22 24 25 26 27 26 27 28 29 27 23 21 20 17 14 16 18 16 14 13 11 11 13 14 14 11 8 7 7 8 9 9 9 9 9 9 9 8 8 7 7 7 8 9 9 10 11 12 13 14
21 19 18 17 18 19 19 18 20 23 25 28 29 29 28 27 27 26 24 26 27 27 28 28 29 30 29 27 27 26 23 21 21 22 23 23 22 24 24 23 21 21 20 20 21 22 24 25 25 26 25 24 25 28 29 29 27 23 20 18 16 15 16 18 16 14 13 13 12 13 14 13 11 7 6 7 8 8 9 9 9 9 9 8 8 8 7 7 7 8 8 9 9 10 11 12 13
22 20 18 18 19 20 19 18 19 22 24 26 25 26 26 25 26 26 24 24 26 26 27 28 28 29 27 24 23 23 21 20 21 22 24 23 24 24 22 21 21 21 20 20 20 22 24 25 26 26 24 21 22 25 26 29 31 25 18 15 16 17 18 18 16 15 14 15 14 13 13 13 11 8 6 7 7 8 9 9 9 9 8 8 8 8 8 8 8 8 8 9 9 10 11 12 12
22 20 18 19 19 17 15 16 19 22 22 22 22 22 22 23 23 21 19 20 23 23 22 24 25 26 24 22 22 21 19 20 22 24 25 25 25 24 22 20 19 19 19 20 20 20 21 22 24 26 25 24 23 23 25 30 34 30 22 16 16 18 19 17 15 15 15 15 15 14 13 12 12 10 9 8 8 8 9 10 10 10 10 10 10 10 10 9 9 9 9 9 10 10 11 12 12
20 19 17 18 17 15 14 15 18 21 20 18 17 17 17 18 18 18 17 18 20 19 18 18 20 21 21 21 21 20 20 21 22 23 24 24 23 23 21 19 18 17 17 18 19 20 20 20 21 23 26 28 24 20 22 27 31 31 24 19 17 19 20 19 18 16 16 16 17 15 14 13 13 12 11 10 9 9 10 10 11 11 12 12 12 12 12 12 12 11 11 11 11 11 11 12 13
18 16 16 17 16 14 14 15 17 18 17 15 13 13 14 16 18 17 17 19 20 20 20 20 20 21 21 21 21 19 20 21 20 21 22 21 20 19 18 18 17 17 17 18 19 21 21 21 21 21 22 24 22 18 20 22 26 27 23 21 19 18 19 19 18 17 18 19 19 18 17 15 14 13 12 11 9 9 10 11 12 13 13 14 13 13 13 14 14 14 13 12 12 12 12 12 13
19 19 19 19 19 17 15 15 16 16 14 13 13 13 14 16 18 18 18 20 22 22 23 23 23 23 22 21 21 20 21 21 20 20 20 19 16 16 17 18 18 17 17 18 20 22 22 22 21 20 18 18 19 18 18 17 19 23 22 20 18 18 18 18 18 18 19 19 19 18 18 17 15 14 13 12 11 10 10 11 13 14 14 14 13 12 12 13 14 15 15 15 14 13 12 12 13
22 23 24 25 24 22 20 18 18 17 15 15 14 14 16 18 19 20 20 21 23 24 24 24 24 23 21 22 22 22 23 23 21 20 19 18 17 17 18 19 20 20 19 20 21 22 24 23 22 20 18 19 20 19 18 18 20 22 20 17 18 19 20 21 20 20 19 19 20 19 18 17 17 16 15 14 14 13 12 12 13 14 15 14 13 12 12 12 13 14 16 17 16 15 14 14 14
24 23 25 28 28 25 23 21 21 21 19 19 18 16 18 20 20 20 21 22 23 24 24 24 24 23 23 24 25 23 22 24 24 24 22 21 20 20 20 20 22 23 23 22 22 23 24 24 24 22 20 21 22 22 23 23 22 23 24 24 24 23 24 24 22 21 21 21 21 21 20 18 18 17 17 18 18 16 15 14 14 14 14 14 14 14 14 14 14 15 16 17 17 17 16 16 16
Wind_Direction
248 250 251 251 253 253 254 255 256 257 258 259 262 261 244 240 215 209 215 219 235 247 251 252 252 254 248 241 239 237 237 238 245 259 266 268 270 273 276 277 276 272 271 273 272 267 265 268 268 270 271 271 271 272 274 275 275 274 273 273 275 277 280 284 287 291 294 297 298 297 295 294 293 293 295 296 297 298 299 298 295 292 286 280 272 260 249 241 240 244 245 245 245 248 248 246 249
249 250 250 252 254 254 256 256 257 258 259 260 261 247 231 233 219 210 213 219 233 242 247 250 247 249 249 245 245 243 238 236 241 252 258 261 264 269 272 272 272 269 269 271 269 262 261 265 266 269 269 269 270 271 274 274 274 273 273 273 274 277 280 284 288 292 294 296 296 294 293 291 291 291 292 293 294 295 296 297 295 292 286 280 270 256 244 237 234 240 243 245 245 246 246 244 246
251 251 252 253 254 255 256 257 258 259 261 262 250 232 222 223 217 210 210 218 231 236 242 247 243 245 248 248 248 248 243 238 241 249 253 258 262 267 270 269 268 266 267 268 265 262 262 263 267 271 268 268 269 271 273 273 273 272 272 272 275 278 281 284 287 291 293 293 292 291 290 290 289 289 289 290 291 292 293 295 294 292 287 279 269 253 241 234 230 235 240 242 243 243 245 245 245
254 254 254 255 256 257 258 258 260 260 264 258 227 223 217 220 214 209 211 215 228 232 237 245 245 245 246 247 249 249 248 247 249 254 256 259 262 263 265 265 264 264 265 265 264 266 266 264 269 270 266 266 269 271 272 271 272 271 271 272 277 280 282 284 286 289 289 289 289 289 289 288 288 287 287 287 288 290 292 294 292 290 286 279 268 253 240 231 228 232 238 240 242 243 245 247 247
257 258 258 259 259 259 260 260 261 262 263 230 210 220 218 220 211 211 216 216 226 232 235 241 246 249 248 247 248 249 249 251 255 258 258 260 261 259 261 261 261 264 264 263 263 266 266 265 268 267 264 268 271 270 270 270 270 269 271 274 279 281 282 284 284 285 285 286 286 287 288 288 287 286 286 286 287 288 291 292 290 287 283 277 266 253 241 230 226 231 238 241 243 244 244 246 247
258 259 260 261 261 261 261 261 261 263 260 215 210 221 218 217 213 216 221 220 226 231 236 240 245 251 254 253 252 253 252 253 255 257 259 260 259 257 258 260 261 263 262 262 262 264 264 264 266 264 264 269 270 268 269 268 267 268 273 277 281 283 283 283 282 282 283 284 285 286 287 287 287 286 285 285 286 288 289 290 288 284 279 273 264 251 240 231 228 233 240 244 245 245 245 245 245
258 259 260 260 260 260 260 260 262 262 255 210 209 220 218 217 221 224 226 229 231 234 241 245 246 249 254 256 256 257 257 257 256 258 263 261 257 254 256 259 261 261 261 260 260 261 261 262 262 261 264 267 266 265 265 264 266 270 276 280 282 283 282 282 281 281 282 283 285 286 288 288 287 284 283 284 285 285 285 285 284 281 275 269 262 252 240 232 231 234 239 242 243 244 244 244 243
258 259 259 260 260 261 261 262 263 259 249 202 201 216 221 220 227 229 229 238 241 241 246 250 251 251 253 256 256 259 261 264 263 265 268 265 258 253 255 258 259 259 260 259 258 258 258 258 259 259 263 263 260 260 260 263 267 272 277 280 281 280 280 281 281 282 283 284 285 287 287 287 285 282 281 281 281 281 281 280 278 276 273 268 261 253 241 233 232 234 237 239 241 243 243 242 242
257 258 258 260 261 262 262 262 260 253 238 195 196 211 221 224 228 228 230 242 246 246 248 249 251 253 256 261 263 265 267 270 272 271 270 270 263 254 255 257 257 258 258 257 257 256 255 255 256 256 258 255 254 254 257 262 267 272 275 277 277 277 278 279 281 282 284 284 286 286 285 283 281 279 277 276 276 276 276 275 274 272 271 267 261 252 242 234 232 234 237 237 238 241 242 241 241
256 257 258 259 259 260 260 257 251 242 228 194 193 205 217 224 228 227 232 244 249 249 252 251 251 252 256 261 266 270 272 273 273 270 267 269 268 257 255 257 258 258 255 254 254 253 251 251 251 251 251 249 249 251 256 261 266 270 271 272 273 274 276 278 280 282 283 283 283 282 281 280 278 276 274 273 272 272 272 273 272 269 267 264 258 251 243 237 234 235 236 236 235 238 241 240 240
257 257 257 258 258 258 259 254 245 242 227 198 194 204 213 219 225 230 237 247 249 248 252 256 257 258 260 262 265 269 271 273 270 268 265 265 268 261 256 258 260 261 256 252 251 248 244 245 246 245 245 245 248 252 257 261 265 267 267 268 271 273 275 276 278 279 280 280 281 281 280 278 276 273 272 270 269 269 271 272 271 266 260 257 253 248 245 241 239 237 238 238 236 237 239 239 237
257 258 257 257 258 258 259 254 248 250 230 206 201 205 212 219 224 231 242 252 252 246 247 253 255 259 264 266 268 270 270 270 270 272 269 263 264 262 259 260 261 263 259 252 247 242 241 243 242 241 242 245 249 253 258 263 266 265 266 269 271 272 272 273 274 277 278 279 280 281 280 278 276 273 271 270 269 269 271 272 270 265 258 252 249 245 242 241 241 240 239 238 236 236 238 238 235
255 257 257 257 258 258 259 249 244 250 228 215 209 203 208 220 228 234 243 253 255 251 250 253 254 257 262 266 270 270 270 270 273 275 270 261 259 260 262 262 261 261 258 251 246 243 242 240 240 243 244 247 251 258 265 268 269 269 271 273 272 270 270 272 275 279 279 279 278 278 279 278 276 275 274 273 272 272 272 273 271 266 258 251 248 244 240 238 239 238 238 236 234 234 235 236 233
254 255 257 258 258 257 256 235 221 235 227 223 220 208 208 215 227 237 247 254 258 257 256 257 261 264 265 269 272 270 269 270 274 273 264 258 257 260 263 265 265 261 257 252 247 242 239 238 240 242 243 247 255 263 269 272 273 274 275 274 270 268 269 273 277 279 278 276 276 276 277 277 277 276 276 276 276 276 276 275 272 267 258 251 247 244 240 237 236 236 237 236 234 232 233 234 231
254 255 256 257 258 256 253 229 209 224 230 233 233 223 217 219 227 236 245 251 256 256 256 258 264 268 268 270 271 268 268 267 269 266 258 257 257 260 262 266 270 262 249 240 234 231 230 232 234 237 243 251 260 267 272 275 276 275 275 273 269 269 271 275 278 279 277 274 274 274 274 276 278 278 278 278 278 279 278 275 273 269 261 253 246 242 241 239 237 236 237 239 237 234 232 233 231
253 254 254 255 256 254 249 229 211 219 227 231 231 230 229 231 237 241 244 247 252 255 258 261 266 268 266 269 268 263 264 263 264 262 259 259 259 261 263 265 266 260 246 231 225 225 223 225 229 237 245 252 260 267 271 275 275 275 275 273 272 273 275 278 279 278 274 272 275 274 273 274 276 278 278 280 282 281 277 274 273 271 265 257 248 242 240 239 237 236 236 238 239 236 232 232 232
253 254 253 252 250 246 239 224 219 221 224 225 220 226 234 235 245 251 251 255 258 262 266 266 269 269 265 267 266 261 260 261 264 265 263 265 265 267 267 265 263 258 252 240 228 221 221 223 230 238 244 251 258 264 271 274 273 275 277 277 279 278 276 276 274 272 270 273 278 278 279 279 278 278 278 279 280 278 273 270 269 266 264 258 250 242 239 239 237 236 236 237 238 237 233 231 232
255 255 254 251 246 238 224 217 222 223 223 225 216 215 232 239 249 255 255 258 261 265 271 273 275 274 268 264 262 262 263 264 267 269 268 270 271 271 272 271 265 256 252 247 233 222 224 230 237 244 250 256 262 270 275 274 272 274 277 278 280 280 277 275 273 273 275 274 272 276 281 281 281 280 279 278 277 276 272 268 264 260 257 254 250 244 241 239 238 237 237 238 239 238 237 234 233
256 257 255 247 241 234 223 222 225 224 224 226 220 214 223 235 246 253 255 257 261 265 269 278 283 278 274 266 261 264 266 266 266 269 271 271 269 270 274 271 264 252 241 236 230 227 231 237 245 251 257 262 267 270 268 268 273 274 274 275 276 276 274 273 273 272 273 270 268 274 277 276 279 281 281 280 279 280 276 268 261 256 253 251 248 246 245 242 240 240 240 241 241 238 237 237 236
254 256 252 238 237 229 219 227 229 229 232 231 228 226 230 236 244 255 262 263 266 268 267 279 284 278 276 271 269 269 268 266 263 264 267 267 267 270 273 267 260 250 231 219 218 223 231 239 249 257 262 264 263 262 259 265 274 274 272 274 275 274 272 270 270 269 266 269 275 279 280 278 278 279 279 280 283 281 277 270 261 256 256 254 248 244 247 248 246 246 245 244 242 238 236 237 237
251 250 244 236 240 228 217 232 237 236 242 241 240 246 252 250 251 266 275 274 273 271 268 273 278 276 276 273 274 276 274 272 267 265 268 270 270 270 269 261 256 254 242 227 220 222 229 241 252 257 262 260 257 256 259 267 273 276 275 274 274 273 271 270 272 272 271 276 279 278 279 282 279 275 273 278 282 276 270 266 261 261 260 257 250 243 244 250 251 250 248 246 243 237 233 234 235
249 243 238 237 241 235 227 238 245 243 245 251 258 269 277 270 265 275 279 278 274 270 270 273 275 274 272 272 276 280 281 279 275 272 276 279 273 266 259 252 249 250 247 237 227 225 229 240 251 254 258 256 253 255 259 264 268 273 272 270 271 270 268 270 272 275 277 279 279 277 277 279 281 274 269 272 272 267 263 258 259 264 259 257 255 248 244 248 251 250 249 247 243 237 232 231 232
246 240 238 239 239 236 235 239 245 250 254 262 271 277 286 279 268 274 273 271 267 267 272 277 276 273 272 277 282 282 281 277 274 274 282 287 275 258 244 240 241 240 237 232 229 229 230 238 251 254 253 250 250 254 257 259 265 270 268 268 270 268 268 271 271 273 278 281 282 282 277 275 280 280 270 264 261 262 263 256 258 261 257 257 257 250 244 245 247 247 247 247 244 240 235 233 234
243 238 235 237 239 238 240 243 247 255 261 270 273 270 278 272 262 266 268 267 265 267 272 273 274 277 281 285 286 283 280 277 273 274 280 282 276 257 235 228 229 231 230 228 228 230 231 235 246 250 247 247 248 253 255 254 264 273 274 278 277 272 275 279 277 278 281 284 284 280 276 276 281 285 275 264 261 259 258 260 261 260 260 263 261 251 244 243 244 243 244 244 243 241 238 237 238
244 240 234 233 238 241 243 248 254 259 262 266 260 247 253 258 256 259 264 266 265 269 271 269 274 280 282 285 290 292 289 285 281 281 279 274 271 253 229 219 218 221 225 229 231 231 231 232 244 250 242 238 241 249 255 252 264 277 285 296 291 283 286 288 286 287 286 284 282 278 279 283 284 284 279 275 270 255 253 260 258 261 268 271 271 261 249 246 245 242 240 239 239 239 239 239 239
247 243 240 236 237 241 245 249 255 260 260 256 248 242 241 246 253 258 262 262 264 270 272 270 273 276 279 286 293 293 291 291 290 287 280 268 259 242 225 216 212 214 220 227 231 228 227 235 248 251 240 240 247 259 268 265 273 281 288 296 297 296 297 293 290 292 288 282 282 280 280 285 289 285 282 283 275 259 256 259 258 265 271 271 273 267 254 248 247 244 240 237 237 239 241 241 240
250 249 249 247 245 246 247 249 252 259 266 260 252 248 243 244 253 259 259 260 264 270 270 267 269 275 282 286 289 290 291 297 298 293 286 268 250 234 222 216 214 219 222 223 223 221 226 238 249 250 246 259 270 276 283 286 287 285 286 290 294 298 296 292 292 292 287 285 285 283 281 285 288 284 285 289 277 265 263 266 269 263 259 276 284 272 256 251 254 253 247 240 239 241 244 243 241
252 254 254 252 251 252 252 251 253 260 266 261 251 248 247 249 256 260 260 260 264 267 267 270 272 275 278 282 287 289 291 298 297 289 279 259 244 228 219 220 223 225 221 214 212 218 230 240 248 253 259 275 282 281 283 287 288 283 282 284 288 291 290 290 291 288 285 288 288 288 284 278 279 281 285 284 270 266 265 264 270 256 255 308 308 287 264 259 262 259 253 248 246 246 246 246 247
253 255 255 254 252 251 250 249 248 250 253 251 245 246 252 256 255 255 257 259 262 265 267 272 273 271 272 278 282 282 283 290 287 277 257 236 230 223 223 227 225 218 207 205 212 220 233 242 252 259 264 274 280 280 278 280 282 281 279 279 280 284 288 290 290 285 282 282 287 291 286 278 279 278 273 269 263 264 260 251 262 275 293 309 305 294 276 273 271 261 255 250 250 249 250 255 259
253 254 256 258 253 244 240 238 237 238 242 244 243 245 249 251 250 250 254 258 261 262 265 271 273 272 272 275 277 276 278 282 281 272 245 220 218 221 227 227 222 216 204 204 216 226 233 246 257 261 267 276 280 282 285 291 291 286 283 280 280 282 286 290 290 287 282 279 283 286 285 287 288 274 260 262 262 262 256 249 262 282 300 313 307 299 295 295 288 273 262 254 252 252 253 257 259
248 250 250 251 244 236 235 233 232 234 239 242 242 244 243 245 250 251 252 256 259 260 266 274 275 272 270 273 279 280 277 277 274 263 235 216 218 224 227 221 219 221 210 209 222 230 236 249 256 260 269 280 284 288 295 301 298 290 286 285 285 285 285 287 289 288 286 286 285 281 285 293 289 275 273 272 256 258 257 243 250 269 286 300 304 305 306 305 300 291 281 271 263 257 255 254 254
241 242 238 235 232 230 231 231 231 233 237 240 239 237 238 243 252 254 252 252 256 261 270 277 275 272 274 280 284 282 272 263 250 243 245 231 227 231 222 217 220 225 225 226 229 233 245 257 259 264 276 287 288 290 296 297 295 289 284 282 282 282 282 283 285 286 288 289 289 285 288 292 289 289 293 293 285 274 268 247 240 250 265 280 297 306 306 303 303 302 298 287 272 265 262 260 260
234 231 222 219 221 216 203 203 217 230 234 235 231 232 235 237 247 254 253 250 252 260 274 279 279 280 281 282 281 275 261 247 239 243 254 244 230 229 219 218 225 233 240 239 234 243 258 263 266 273 282 288 287 291 298 298 294 290 283 279 277 278 279 280 281 282 286 288 290 290 290 290 290 294 294 296 301 288 270 260 249 248 257 267 283 295 300 300 300 304 310 301 278 273 271 270 270
227 218 213 217 216 206 191 191 204 220 237 237 222 229 233 232 241 251 254 252 252 259 274 281 284 287 283 281 280 279 272 259 253 255 255 247 239 237 232 232 233 236 238 235 238 254 261 262 267 275 281 282 284 291 298 297 293 289 284 278 274 274 275 276 277 279 281 284 288 291 292 291 288 288 287 288 290 280 267 263 258 259 264 269 277 283 287 288 291 301 309 311 301 288 281 279 274
227 211 204 209 207 198 190 198 209 214 236 248 225 220 225 229 237 243 248 248 252 264 280 284 284 285 285 287 287 287 285 276 271 267 259 256 254 252 255 253 242 235 232 230 240 250 254 259 263 267 272 272 279 288 293 292 288 286 283 280 276 274 274 277 278 280 280 282 286 290 291 290 285 280 277 277 274 267 262 261 261 261 264 270 277 280 280 280 283 288 295 304 301 290 283 280 274
222 206 199 197 191 192 197 208 217 219 233 248 238 205 210 221 231 232 239 247 252 267 279 280 279 282 287 293 295 293 291 287 284 274 259 261 258 255 260 251 234 233 237 238 244 249 252 257 258 259 261 264 272 281 286 287 285 284 283 282 280 277 277 279 281 282 282 285 287 289 291 291 290 285 280 279 275 264 257 257 257 258 262 267 272 275 275 276 278 279 284 291 291 287 281 275 269
212 198 192 188 183 197 213 215 223 237 247 248 173 192 207 223 231 231 249 256 255 262 269 272 275 281 287 293 298 297 295 295 293 278 260 260 255 251 252 244 245 256 260 257 258 259 258 258 257 255 255 260 268 274 280 282 282 283 283 283 284 285 286 286 287 285 283 285 287 288 290 289 290 289 287 287 284 274 265 262 261 261 262 264 267 270 269 270 273 277 280 283 285 284 279 273 266
210 192 180 179 184 203 220 215 210 237 252 262 219 192 212 240 238 234 249 258 260 262 265 270 275 282 289 290 292 293 296 300 297 283 269 264 259 254 257 260 264 265 263 265 265 263 261 258 254 253 256 262 267 272 279 279 277 281 283 284 287 290 291 289 288 287 283 283 284 286 288 285 284 282 280 280 278 273 267 264 262 261 260 261 263 264 264 265 267 271 275 277 280 279 275 270 264
210 189 172 172 188 201 217 207 173 194 199 239 248 222 227 250 244 237 245 252 260 265 267 272 278 284 287 288 290 292 295 299 297 290 280 270 261 254 259 259 257 255 261 269 266 260 260 258 256 259 265 268 266 269 281 280 275 278 282 284 285 286 287 287 284 282 281 280 281 282 282 281 278 277 276 273 268 264 261 258 257 257 257 259 261 261 262 262 262 264 267 270 272 273 274 270 262
209 189 171 174 188 193 205 191 168 194 199 211 244 249 248 249 238 233 239 245 251 260 266 273 278 280 284 288 292 294 297 301 299 293 285 279 274 264 261 254 248 251 257 262 262 261 263 263 266 268 269 271 267 270 289 287 275 276 281 282 284 285 286 288 285 279 276 275 277 278 278 277 274 273 273 271 267 264 262 261 260 259 259 260 261 261 261 261 260 259 260 262 263 265 269 268 264
208 195 179 179 186 183 189 186 180 199 208 214 232 246 247 240 229 231 239 243 243 249 258 268 274 276 282 286 290 293 295 298 300 299 296 299 302 291 274 261 260 263 260 257 258 261 265 268 272 272 271 273 269 272 297 295 280 279 286 287 286 287 286 288 287 282 275 271 268 270 271 272 270 269 268 268 268 267 266 266 264 264 263 263 263 263 264 264 263 261 259 259 258 257 260 261 262
205 198 185 183 188 187 189 193 195 202 212 224 230 236 239 234 224 228 238 244 244 249 256 267 272 274 279 283 287 289 289 292 298 302 304 307 308 305 300 289 287 286 276 268 264 266 271 274 276 275 275 274 267 268 281 292 287 281 287 300 299 295 290 288 285 280 273 270 266 263 263 264 264 265 265 264 265 266 268 269 269 269 269 269 270 269 269 268 267 265 263 261 260 258 257 259 260
206 198 188 186 192 195 198 204 207 209 215 226 232 235 238 232 219 218 231 242 247 250 256 264 267 270 274 278 282 283 286 293 298 300 302 306 312 320 325 318 303 292 282 278 276 275 278 280 282 281 280 276 270 271 272 278 289 283 286 306 310 305 298 291 287 281 276 275 272 265 261 261 261 261 263 264 264 265 268 270 271 273 274 274 275 275 273 271 269 266 263 262 262 261 259 260 261
207 199 192 191 196 199 206 213 216 218 222 228 235 243 244 231 219 217 224 234 244 248 252 257 262 265 266 269 274 279 287 294 296 298 301 309 324 331 329 327 319 303 292 289 286 282 279 281 285 284 281 277 275 280 276 270 271 272 288 307 310 307 303 299 297 294 292 289 283 274 264 261 262 261 261 261 262 263 264 267 270 271 273 274 275 275 274 271 269 265 263 261 261 260 258 258 258
207 201 194 194 200 203 210 218 222 228 232 234 241 250 251 239 225 223 226 230 237 243 248 253 258 260 260 264 270 278 284 287 292 298 304 314 323 321 317 316 319 316 307 300 294 287 280 280 282 279 274 271 275 285 287 274 259 259 281 299 304 304 304 306 308 305 301 297 290 281 269 262 262 261 261 261 261 263 263 265 267 269 270 272 273 274 273 271 269 267 265 261 259 257 256 255 255
207 203 197 198 203 206 212 221 227 234 239 242 247 251 252 244 229 224 230 231 232 237 242 248 254 256 258 264 270 275 278 281 290 300 308 314 310 306 307 305 305 305 299 294 289 284 280 279 280 277 273 273 278 288 293 286 272 270 281 289 293 302 306 308 308 306 302 298 291 283 272 264 264 264 262 264 265 266 267 267 268 270 271 272 273 275 275 274 271 269 266 264 261 258 255 253 253
209 206 202 203 206 208 214 224 230 235 240 245 250 253 253 248 237 229 231 233 232 233 235 241 250 253 256 262 266 270 272 276 287 297 302 305 302 299 299 295 292 291 289 288 283 277 276 277 277 276 275 276 281 289 292 291 285 283 286 285 288 299 303 304 303 299 296 292 286 281 273 264 262 264 264 266 270 273 275 276 276 277 278 278 278 278 278 277 274 270 267 265 263 261 257 254 253
216 213 209 209 212 215 220 226 230 233 238 243 249 253 255 255 250 240 233 232 232 233 234 239 247 252 254 257 261 265 268 275 286 294 296 299 300 297 294 291 289 289 290 290 287 281 278 275 272 272 273 275 280 284 287 287 285 285 286 285 289 296 298 300 299 291 287 286 284 281 276 267 260 264 268 272 278 282 284 286 285 285 284 284 283 281 279 276 273 270 267 265 263 262 260 258 257
225 223 219 217 219 223 226 229 231 232 235 240 244 248 252 255 254 249 242 238 235 236 238 240 246 252 255 258 260 262 267 275 284 287 289 295 297 294 292 290 291 291 290 289 288 284 280 276 270 266 267 272 276 275 276 280 280 282 285 285 285 288 293 300 297 287 282 282 283 282 277 270 263 264 273 280 288 292 293 294 293 291 288 287 285 281 277 272 269 267 265 264 262 261 261 260 260
232 232 230 227 227 229 234 237 235 233 233 235 238 242 246 250 254 255 252 247 241 240 240 240 244 249 254 259 262 264 270 278 281 283 287 293 293 289 288 290 291 291 288 286 286 283 278 274 271 268 268 272 274 269 269 273 274 277 282 283 279 278 289 300 300 292 284 279 277 277 274 269 264 267 278 289 297 300 300 297 293 289 286 283 281 277 273 268 266 266 266 267 267 265 263 262 261
232 231 230 233 234 237 242 244 240 235 233 233 237 241 244 248 254 256 251 248 246 243 242 242 244 249 255 260 265 272 278 280 281 286 291 294 290 286 288 292 293 292 289 287 285 282 277 272 270 271 273 276 277 270 264 260 259 266 279 281 276 276 288 299 304 301 289 282 277 274 272 268 263 267 282 294 300 302 300 295 287 280 275 273 271 270 269 267 265 265 266 269 270 269 267 265 262
229 228 229 231 233 238 244 243 239 236 236 237 239 243 247 250 253 255 251 246 245 244 245 247 248 250 255 262 270 276 279 279 282 289 291 289 285 285 291 297 297 296 294 289 284 279 277 274 272 273 275 277 276 269 261 254 251 258 278 287 282 282 286 292 299 300 290 283 279 275 273 270 263 260 268 281 290 296 299 296 288 279 270 265 262 260 262 265 267 268 268 270 270 270 270 268 265
222 225 224 225 229 235 239 240 241 241 243 245 246 247 250 250 250 254 251 239 238 242 245 248 248 246 249 256 264 270 274 277 280 284 282 278 278 284 292 295 294 293 291 287 285 285 283 279 276 274 270 270 271 268 265 258 249 249 263 281 285 280 276 275 280 286 284 279 277 274 271 269 267 264 263 269 280 292 300 299 293 287 282 277 272 266 262 260 260 262 265 268 269 269 270 271 271
215 221 222 223 228 234 235 238 246 249 250 254 253 248 248 248 247 249 246 237 235 237 238 243 245 241 240 247 255 259 264 269 271 274 274 272 276 284 287 287 288 288 286 286 287 289 292 291 286 279 268 263 264 269 273 262 243 238 253 278 284 273 267 266 266 272 280 279 275 272 268 267 269 270 269 272 280 291 298 296 291 288 289 288 284 280 275 270 265 261 260 261 264 267 269 271 272
212 216 225 226 225 235 245 249 252 255 256 255 249 242 240 243 245 244 241 240 238 237 239 244 245 244 245 248 249 249 251 254 259 262 263 265 273 276 275 277 282 286 286 287 287 288 291 292 290 287 276 265 263 270 279 266 242 242 264 284 280 267 264 268 265 268 278 280 275 271 271 271 271 272 274 274 276 284 288 286 281 280 282 284 284 284 284 282 279 274 269 264 262 263 265 267 270
215 213 220 225 223 229 241 247 250 253 254 248 239 233 236 240 243 242 238 238 239 239 243 247 247 249 251 250 249 248 248 247 250 254 253 256 264 267 269 273 276 281 285 286 287 288 289 290 289 288 280 273 274 276 279 276 264 268 280 285 274 262 264 271 271 271 275 275 270 269 273 276 275 276 277 275 274 276 276 274 272 272 274 275 276 280 283 285 286 285 282 277 270 265 263 262 263
217 215 219 226 227 227 231 237 245 247 248 248 241 235 241 244 243 244 241 239 241 242 243 245 246 248 250 253 254 254 249 243 243 250 254 256 260 262 265 269 271 277 282 284 286 286 286 287 287 286 281 277 281 281 280 288 289 283 280 281 279 274 273 278 277 270 267 265 264 266 269 273 276 276 278 279 277 275 272 269 269 272 274 273 273 277 279 280 282 285 285 283 280 277 273 267 262
223 219 220 225 228 230 233 236 241 243 244 249 249 244 247 247 245 246 245 243 245 246 246 246 247 249 254 258 259 256 247 240 243 254 259 262 265 264 265 269 272 277 282 283 284 285 286 286 285 286 286 284 283 281 282 289 291 281 275 280 285 281 278 281 279 269 263 259 259 262 262 264 268 273 277 279 278 276 275 273 272 271 274 280 284 286 286 284 281 281 281 280 279 279 277 273 268